Data supplied by UK-AIR on 5/4/2008
All Data GMT hour ending 
Status: R =Ratified P=Provisional,P*=As supplied
,,Cambridge Roadside,,,,,,,,,,,,,,,,,,,,,,,
Date,time,"Nitric oxide",status,unit,"Nitrogen dioxide",status,unit,"Nitrogen oxides as nitrogen dioxide",status,unit
 
01-01-2004,01:00,8,R,ugm-3,31,R,ugm-3,42,R,ugm-3
01-01-2004,02:00,9,R,ugm-3,25,R,ugm-3,38,R,ugm-3
01-01-2004,03:00,8,R,ugm-3,15,R,ugm-3,27,R,ugm-3
01-01-2004,04:00,4,R,ugm-3,13,R,ugm-3,19,R,ugm-3
01-01-2004,05:00,4,R,ugm-3,10,R,ugm-3,15,R,ugm-3
01-01-2004,06:00,3,R,ugm-3,6,R,ugm-3,10,R,ugm-3
01-01-2004,07:00,5,R,ugm-3,10,R,ugm-3,17,R,ugm-3
01-01-2004,08:00,13,R,ugm-3,21,R,ugm-3,40,R,ugm-3
01-01-2004,09:00,3,R,ugm-3,11,R,ugm-3,15,R,ugm-3
01-01-2004,10:00,5,R,ugm-3,13,R,ugm-3,21,R,ugm-3
01-01-2004,11:00,11,R,ugm-3,21,R,ugm-3,38,R,ugm-3
01-01-2004,12:00,25,R,ugm-3,34,R,ugm-3,73,R,ugm-3
01-01-2004,13:00,40,R,ugm-3,46,R,ugm-3,107,R,ugm-3
01-01-2004,14:00,43,R,ugm-3,48,R,ugm-3,113,R,ugm-3
01-01-2004,15:00,33,R,ugm-3,42,R,ugm-3,92,R,ugm-3
01-01-2004,16:00,23,R,ugm-3,32,R,ugm-3,67,R,ugm-3
01-01-2004,17:00,28,R,ugm-3,36,R,ugm-3,78,R,ugm-3
01-01-2004,18:00,15,R,ugm-3,29,R,ugm-3,52,R,ugm-3
01-01-2004,19:00,15,R,ugm-3,25,R,ugm-3,48,R,ugm-3
01-01-2004,20:00,10,R,ugm-3,19,R,ugm-3,34,R,ugm-3
01-01-2004,21:00,11,R,ugm-3,21,R,ugm-3,38,R,ugm-3
01-01-2004,22:00,10,R,ugm-3,29,R,ugm-3,44,R,ugm-3
01-01-2004,23:00,11,R,ugm-3,31,R,ugm-3,48,R,ugm-3
01-01-2004,24:00,10,R,ugm-3,23,R,ugm-3,38,R,ugm-3
02-01-2004,01:00,5,R,ugm-3,23,R,ugm-3,31,R,ugm-3
02-01-2004,02:00,4,R,ugm-3,25,R,ugm-3,31,R,ugm-3
02-01-2004,03:00,3,R,ugm-3,15,R,ugm-3,19,R,ugm-3
02-01-2004,04:00,1,R,ugm-3,13,R,ugm-3,15,R,ugm-3
02-01-2004,05:00,3,R,ugm-3,10,R,ugm-3,13,R,ugm-3
02-01-2004,06:00,3,R,ugm-3,10,R,ugm-3,13,R,ugm-3
02-01-2004,07:00,6,R,ugm-3,23,R,ugm-3,32,R,ugm-3
02-01-2004,08:00,29,R,ugm-3,32,R,ugm-3,76,R,ugm-3
02-01-2004,09:00,54,R,ugm-3,36,R,ugm-3,118,R,ugm-3
02-01-2004,10:00,,,,,,,,,
02-01-2004,11:00,,,,,,,,,
02-01-2004,12:00,51,R,ugm-3,34,R,ugm-3,113,R,ugm-3
02-01-2004,13:00,66,R,ugm-3,36,R,ugm-3,138,R,ugm-3
02-01-2004,14:00,60,R,ugm-3,38,R,ugm-3,130,R,ugm-3
02-01-2004,15:00,58,R,ugm-3,34,R,ugm-3,122,R,ugm-3
02-01-2004,16:00,63,R,ugm-3,40,R,ugm-3,136,R,ugm-3
02-01-2004,17:00,49,R,ugm-3,50,R,ugm-3,124,R,ugm-3
02-01-2004,18:00,89,R,ugm-3,65,R,ugm-3,201,R,ugm-3
02-01-2004,19:00,118,R,ugm-3,71,R,ugm-3,250,R,ugm-3
02-01-2004,20:00,89,R,ugm-3,63,R,ugm-3,199,R,ugm-3
02-01-2004,21:00,81,R,ugm-3,65,R,ugm-3,189,R,ugm-3
02-01-2004,22:00,90,R,ugm-3,63,R,ugm-3,201,R,ugm-3
02-01-2004,23:00,45,R,ugm-3,48,R,ugm-3,117,R,ugm-3
02-01-2004,24:00,63,R,ugm-3,50,R,ugm-3,145,R,ugm-3
03-01-2004,01:00,73,R,ugm-3,55,R,ugm-3,166,R,ugm-3
03-01-2004,02:00,51,R,ugm-3,57,R,ugm-3,136,R,ugm-3
03-01-2004,03:00,25,R,ugm-3,44,R,ugm-3,82,R,ugm-3
03-01-2004,04:00,13,R,ugm-3,38,R,ugm-3,57,R,ugm-3
03-01-2004,05:00,8,R,ugm-3,36,R,ugm-3,48,R,ugm-3
03-01-2004,06:00,11,R,ugm-3,36,R,ugm-3,53,R,ugm-3
03-01-2004,07:00,30,R,ugm-3,48,R,ugm-3,94,R,ugm-3
03-01-2004,08:00,74,R,ugm-3,59,R,ugm-3,172,R,ugm-3
03-01-2004,09:00,113,R,ugm-3,61,R,ugm-3,233,R,ugm-3
03-01-2004,10:00,85,R,ugm-3,52,R,ugm-3,181,R,ugm-3
03-01-2004,11:00,115,R,ugm-3,57,R,ugm-3,233,R,ugm-3
03-01-2004,12:00,106,R,ugm-3,55,R,ugm-3,218,R,ugm-3
03-01-2004,13:00,111,R,ugm-3,50,R,ugm-3,220,R,ugm-3
03-01-2004,14:00,103,R,ugm-3,52,R,ugm-3,208,R,ugm-3
03-01-2004,15:00,138,R,ugm-3,65,R,ugm-3,275,R,ugm-3
03-01-2004,16:00,134,R,ugm-3,63,R,ugm-3,267,R,ugm-3
03-01-2004,17:00,148,R,ugm-3,65,R,ugm-3,290,R,ugm-3
03-01-2004,18:00,140,R,ugm-3,69,R,ugm-3,283,R,ugm-3
03-01-2004,19:00,101,R,ugm-3,59,R,ugm-3,214,R,ugm-3
03-01-2004,20:00,59,R,ugm-3,50,R,ugm-3,139,R,ugm-3
03-01-2004,21:00,39,R,ugm-3,44,R,ugm-3,103,R,ugm-3
03-01-2004,22:00,44,R,ugm-3,36,R,ugm-3,103,R,ugm-3
03-01-2004,23:00,38,R,ugm-3,34,R,ugm-3,92,R,ugm-3
03-01-2004,24:00,34,R,ugm-3,31,R,ugm-3,82,R,ugm-3
04-01-2004,01:00,21,R,ugm-3,27,R,ugm-3,59,R,ugm-3
04-01-2004,02:00,14,R,ugm-3,27,R,ugm-3,48,R,ugm-3
04-01-2004,03:00,13,R,ugm-3,27,R,ugm-3,46,R,ugm-3
04-01-2004,04:00,6,R,ugm-3,25,R,ugm-3,34,R,ugm-3
04-01-2004,05:00,3,R,ugm-3,19,R,ugm-3,23,R,ugm-3
04-01-2004,06:00,9,R,ugm-3,17,R,ugm-3,31,R,ugm-3
04-01-2004,07:00,38,R,ugm-3,29,R,ugm-3,86,R,ugm-3
04-01-2004,08:00,10,R,ugm-3,27,R,ugm-3,42,R,ugm-3
04-01-2004,09:00,15,R,ugm-3,27,R,ugm-3,50,R,ugm-3
04-01-2004,10:00,23,R,ugm-3,29,R,ugm-3,63,R,ugm-3
04-01-2004,11:00,48,R,ugm-3,38,R,ugm-3,111,R,ugm-3
04-01-2004,12:00,46,R,ugm-3,42,R,ugm-3,113,R,ugm-3
04-01-2004,13:00,64,R,ugm-3,50,R,ugm-3,147,R,ugm-3
04-01-2004,14:00,61,R,ugm-3,48,R,ugm-3,141,R,ugm-3
04-01-2004,15:00,56,R,ugm-3,48,R,ugm-3,134,R,ugm-3
04-01-2004,16:00,84,R,ugm-3,52,R,ugm-3,180,R,ugm-3
04-01-2004,17:00,133,R,ugm-3,65,R,ugm-3,267,R,ugm-3
04-01-2004,18:00,109,R,ugm-3,55,R,ugm-3,222,R,ugm-3
04-01-2004,19:00,80,R,ugm-3,52,R,ugm-3,174,R,ugm-3
04-01-2004,20:00,63,R,ugm-3,53,R,ugm-3,149,R,ugm-3
04-01-2004,21:00,60,R,ugm-3,50,R,ugm-3,141,R,ugm-3
04-01-2004,22:00,28,R,ugm-3,44,R,ugm-3,86,R,ugm-3
04-01-2004,23:00,24,R,ugm-3,38,R,ugm-3,74,R,ugm-3
04-01-2004,24:00,34,R,ugm-3,42,R,ugm-3,94,R,ugm-3
05-01-2004,01:00,15,R,ugm-3,36,R,ugm-3,59,R,ugm-3
05-01-2004,02:00,6,R,ugm-3,27,R,ugm-3,36,R,ugm-3
05-01-2004,03:00,15,R,ugm-3,32,R,ugm-3,55,R,ugm-3
05-01-2004,04:00,5,R,ugm-3,25,R,ugm-3,32,R,ugm-3
05-01-2004,05:00,5,R,ugm-3,27,R,ugm-3,34,R,ugm-3
05-01-2004,06:00,6,R,ugm-3,19,R,ugm-3,29,R,ugm-3
05-01-2004,07:00,26,R,ugm-3,32,R,ugm-3,73,R,ugm-3
05-01-2004,08:00,76,R,ugm-3,48,R,ugm-3,164,R,ugm-3
05-01-2004,09:00,174,R,ugm-3,65,R,ugm-3,330,R,ugm-3
05-01-2004,10:00,174,R,ugm-3,69,R,ugm-3,334,R,ugm-3
05-01-2004,11:00,165,R,ugm-3,73,R,ugm-3,325,R,ugm-3
05-01-2004,12:00,154,R,ugm-3,69,R,ugm-3,304,R,ugm-3
05-01-2004,13:00,163,R,ugm-3,69,R,ugm-3,317,R,ugm-3
05-01-2004,14:00,128,R,ugm-3,65,R,ugm-3,260,R,ugm-3
05-01-2004,15:00,158,R,ugm-3,71,R,ugm-3,311,R,ugm-3
05-01-2004,16:00,116,R,ugm-3,65,R,ugm-3,243,R,ugm-3
05-01-2004,17:00,151,R,ugm-3,69,R,ugm-3,300,R,ugm-3
05-01-2004,18:00,131,R,ugm-3,65,R,ugm-3,265,R,ugm-3
05-01-2004,19:00,96,R,ugm-3,55,R,ugm-3,202,R,ugm-3
05-01-2004,20:00,48,R,ugm-3,52,R,ugm-3,124,R,ugm-3
05-01-2004,21:00,26,R,ugm-3,44,R,ugm-3,84,R,ugm-3
05-01-2004,22:00,25,R,ugm-3,36,R,ugm-3,74,R,ugm-3
05-01-2004,23:00,19,R,ugm-3,34,R,ugm-3,63,R,ugm-3
05-01-2004,24:00,14,R,ugm-3,27,R,ugm-3,48,R,ugm-3
06-01-2004,01:00,4,R,ugm-3,13,R,ugm-3,19,R,ugm-3
06-01-2004,02:00,4,R,ugm-3,11,R,ugm-3,17,R,ugm-3
06-01-2004,03:00,5,R,ugm-3,6,R,ugm-3,13,R,ugm-3
06-01-2004,04:00,3,R,ugm-3,4,R,ugm-3,8,R,ugm-3
06-01-2004,05:00,3,R,ugm-3,4,R,ugm-3,8,R,ugm-3
06-01-2004,06:00,3,R,ugm-3,8,R,ugm-3,11,R,ugm-3
06-01-2004,07:00,14,R,ugm-3,25,R,ugm-3,46,R,ugm-3
06-01-2004,08:00,43,R,ugm-3,38,R,ugm-3,103,R,ugm-3
06-01-2004,09:00,83,R,ugm-3,57,R,ugm-3,183,R,ugm-3
06-01-2004,10:00,86,R,ugm-3,55,R,ugm-3,187,R,ugm-3
06-01-2004,11:00,81,R,ugm-3,57,R,ugm-3,181,R,ugm-3
06-01-2004,12:00,69,R,ugm-3,57,R,ugm-3,162,R,ugm-3
06-01-2004,13:00,70,R,ugm-3,57,R,ugm-3,164,R,ugm-3
06-01-2004,14:00,64,R,ugm-3,44,R,ugm-3,141,R,ugm-3
06-01-2004,15:00,86,R,ugm-3,63,R,ugm-3,195,R,ugm-3
06-01-2004,16:00,114,R,ugm-3,82,R,ugm-3,256,R,ugm-3
06-01-2004,17:00,193,R,ugm-3,94,R,ugm-3,388,R,ugm-3
06-01-2004,18:00,256,R,ugm-3,97,R,ugm-3,489,R,ugm-3
06-01-2004,19:00,178,R,ugm-3,84,R,ugm-3,355,R,ugm-3
06-01-2004,20:00,115,R,ugm-3,76,R,ugm-3,252,R,ugm-3
06-01-2004,21:00,59,R,ugm-3,61,R,ugm-3,151,R,ugm-3
06-01-2004,22:00,40,R,ugm-3,57,R,ugm-3,118,R,ugm-3
06-01-2004,23:00,34,R,ugm-3,53,R,ugm-3,105,R,ugm-3
06-01-2004,24:00,31,R,ugm-3,52,R,ugm-3,99,R,ugm-3
07-01-2004,01:00,9,R,ugm-3,40,R,ugm-3,53,R,ugm-3
07-01-2004,02:00,8,R,ugm-3,50,R,ugm-3,61,R,ugm-3
07-01-2004,03:00,6,R,ugm-3,44,R,ugm-3,53,R,ugm-3
07-01-2004,04:00,4,R,ugm-3,50,R,ugm-3,55,R,ugm-3
07-01-2004,05:00,3,R,ugm-3,40,R,ugm-3,44,R,ugm-3
07-01-2004,06:00,6,R,ugm-3,29,R,ugm-3,38,R,ugm-3
07-01-2004,07:00,21,R,ugm-3,40,R,ugm-3,73,R,ugm-3
07-01-2004,08:00,61,R,ugm-3,50,R,ugm-3,143,R,ugm-3
07-01-2004,09:00,110,R,ugm-3,57,R,ugm-3,225,R,ugm-3
07-01-2004,10:00,90,R,ugm-3,59,R,ugm-3,197,R,ugm-3
07-01-2004,11:00,98,R,ugm-3,59,R,ugm-3,208,R,ugm-3
07-01-2004,12:00,68,R,ugm-3,50,R,ugm-3,153,R,ugm-3
07-01-2004,13:00,58,R,ugm-3,50,R,ugm-3,138,R,ugm-3
07-01-2004,14:00,56,R,ugm-3,48,R,ugm-3,134,R,ugm-3
07-01-2004,15:00,64,R,ugm-3,50,R,ugm-3,147,R,ugm-3
07-01-2004,16:00,78,R,ugm-3,61,R,ugm-3,180,R,ugm-3
07-01-2004,17:00,120,R,ugm-3,74,R,ugm-3,258,R,ugm-3
07-01-2004,18:00,76,R,ugm-3,67,R,ugm-3,183,R,ugm-3
07-01-2004,19:00,60,R,ugm-3,59,R,ugm-3,151,R,ugm-3
07-01-2004,20:00,39,R,ugm-3,48,R,ugm-3,107,R,ugm-3
07-01-2004,21:00,23,R,ugm-3,44,R,ugm-3,78,R,ugm-3
07-01-2004,22:00,13,R,ugm-3,32,R,ugm-3,52,R,ugm-3
07-01-2004,23:00,16,R,ugm-3,31,R,ugm-3,55,R,ugm-3
07-01-2004,24:00,11,R,ugm-3,25,R,ugm-3,42,R,ugm-3
08-01-2004,01:00,4,R,ugm-3,15,R,ugm-3,21,R,ugm-3
08-01-2004,02:00,3,R,ugm-3,17,R,ugm-3,21,R,ugm-3
08-01-2004,03:00,3,R,ugm-3,11,R,ugm-3,15,R,ugm-3
08-01-2004,04:00,1,R,ugm-3,8,R,ugm-3,10,R,ugm-3
08-01-2004,05:00,1,R,ugm-3,6,R,ugm-3,8,R,ugm-3
08-01-2004,06:00,3,R,ugm-3,11,R,ugm-3,15,R,ugm-3
08-01-2004,07:00,8,R,ugm-3,15,R,ugm-3,27,R,ugm-3
08-01-2004,08:00,33,R,ugm-3,32,R,ugm-3,82,R,ugm-3
08-01-2004,09:00,58,R,ugm-3,48,R,ugm-3,136,R,ugm-3
08-01-2004,10:00,50,R,ugm-3,46,R,ugm-3,122,R,ugm-3
08-01-2004,11:00,44,R,ugm-3,44,R,ugm-3,111,R,ugm-3
08-01-2004,12:00,41,R,ugm-3,29,R,ugm-3,92,R,ugm-3
08-01-2004,13:00,35,R,ugm-3,32,R,ugm-3,86,R,ugm-3
08-01-2004,14:00,46,R,ugm-3,44,R,ugm-3,115,R,ugm-3
08-01-2004,15:00,61,R,ugm-3,65,R,ugm-3,159,R,ugm-3
08-01-2004,16:00,70,R,ugm-3,65,R,ugm-3,172,R,ugm-3
08-01-2004,17:00,79,R,ugm-3,65,R,ugm-3,185,R,ugm-3
08-01-2004,18:00,66,R,ugm-3,59,R,ugm-3,160,R,ugm-3
08-01-2004,19:00,65,R,ugm-3,61,R,ugm-3,160,R,ugm-3
08-01-2004,20:00,43,R,ugm-3,55,R,ugm-3,120,R,ugm-3
08-01-2004,21:00,31,R,ugm-3,46,R,ugm-3,94,R,ugm-3
08-01-2004,22:00,26,R,ugm-3,50,R,ugm-3,90,R,ugm-3
08-01-2004,23:00,23,R,ugm-3,46,R,ugm-3,80,R,ugm-3
08-01-2004,24:00,16,R,ugm-3,44,R,ugm-3,69,R,ugm-3
09-01-2004,01:00,9,R,ugm-3,23,R,ugm-3,36,R,ugm-3
09-01-2004,02:00,8,R,ugm-3,31,R,ugm-3,42,R,ugm-3
09-01-2004,03:00,3,R,ugm-3,15,R,ugm-3,19,R,ugm-3
09-01-2004,04:00,1,R,ugm-3,11,R,ugm-3,13,R,ugm-3
09-01-2004,05:00,1,R,ugm-3,10,R,ugm-3,11,R,ugm-3
09-01-2004,06:00,8,R,ugm-3,13,R,ugm-3,25,R,ugm-3
09-01-2004,07:00,30,R,ugm-3,34,R,ugm-3,80,R,ugm-3
09-01-2004,08:00,56,R,ugm-3,65,R,ugm-3,151,R,ugm-3
09-01-2004,09:00,78,R,ugm-3,65,R,ugm-3,183,R,ugm-3
09-01-2004,10:00,91,R,ugm-3,69,R,ugm-3,208,R,ugm-3
09-01-2004,11:00,71,R,ugm-3,63,R,ugm-3,172,R,ugm-3
09-01-2004,12:00,63,R,ugm-3,59,R,ugm-3,155,R,ugm-3
09-01-2004,13:00,95,R,ugm-3,74,R,ugm-3,220,R,ugm-3
09-01-2004,14:00,55,R,ugm-3,52,R,ugm-3,136,R,ugm-3
09-01-2004,15:00,69,R,ugm-3,59,R,ugm-3,164,R,ugm-3
09-01-2004,16:00,60,R,ugm-3,55,R,ugm-3,147,R,ugm-3
09-01-2004,17:00,99,R,ugm-3,74,R,ugm-3,225,R,ugm-3
09-01-2004,18:00,101,R,ugm-3,73,R,ugm-3,227,R,ugm-3
09-01-2004,19:00,84,R,ugm-3,59,R,ugm-3,187,R,ugm-3
09-01-2004,20:00,70,R,ugm-3,61,R,ugm-3,168,R,ugm-3
09-01-2004,21:00,74,R,ugm-3,65,R,ugm-3,178,R,ugm-3
09-01-2004,22:00,40,R,ugm-3,52,R,ugm-3,113,R,ugm-3
09-01-2004,23:00,39,R,ugm-3,44,R,ugm-3,103,R,ugm-3
09-01-2004,24:00,31,R,ugm-3,42,R,ugm-3,90,R,ugm-3
10-01-2004,01:00,14,R,ugm-3,32,R,ugm-3,53,R,ugm-3
10-01-2004,02:00,15,R,ugm-3,42,R,ugm-3,65,R,ugm-3
10-01-2004,03:00,20,R,ugm-3,40,R,ugm-3,71,R,ugm-3
10-01-2004,04:00,6,R,ugm-3,34,R,ugm-3,44,R,ugm-3
10-01-2004,05:00,4,R,ugm-3,34,R,ugm-3,40,R,ugm-3
10-01-2004,06:00,6,R,ugm-3,32,R,ugm-3,42,R,ugm-3
10-01-2004,07:00,15,R,ugm-3,42,R,ugm-3,65,R,ugm-3
10-01-2004,08:00,33,R,ugm-3,44,R,ugm-3,94,R,ugm-3
10-01-2004,09:00,59,R,ugm-3,59,R,ugm-3,149,R,ugm-3
10-01-2004,10:00,61,R,ugm-3,59,R,ugm-3,153,R,ugm-3
10-01-2004,11:00,78,R,ugm-3,63,R,ugm-3,181,R,ugm-3
10-01-2004,12:00,83,R,ugm-3,61,R,ugm-3,187,R,ugm-3
10-01-2004,13:00,96,R,ugm-3,61,R,ugm-3,208,R,ugm-3
10-01-2004,14:00,103,R,ugm-3,67,R,ugm-3,223,R,ugm-3
10-01-2004,15:00,85,R,ugm-3,59,R,ugm-3,189,R,ugm-3
10-01-2004,16:00,101,R,ugm-3,61,R,ugm-3,216,R,ugm-3
10-01-2004,17:00,134,R,ugm-3,73,R,ugm-3,277,R,ugm-3
10-01-2004,18:00,90,R,ugm-3,61,R,ugm-3,199,R,ugm-3
10-01-2004,19:00,94,R,ugm-3,57,R,ugm-3,201,R,ugm-3
10-01-2004,20:00,46,R,ugm-3,44,R,ugm-3,115,R,ugm-3
10-01-2004,21:00,41,R,ugm-3,44,R,ugm-3,107,R,ugm-3
10-01-2004,22:00,25,R,ugm-3,31,R,ugm-3,69,R,ugm-3
10-01-2004,23:00,21,R,ugm-3,25,R,ugm-3,57,R,ugm-3
10-01-2004,24:00,21,R,ugm-3,25,R,ugm-3,57,R,ugm-3
11-01-2004,01:00,14,R,ugm-3,19,R,ugm-3,40,R,ugm-3
11-01-2004,02:00,19,R,ugm-3,27,R,ugm-3,55,R,ugm-3
11-01-2004,03:00,5,R,ugm-3,11,R,ugm-3,19,R,ugm-3
11-01-2004,04:00,3,R,ugm-3,4,R,ugm-3,8,R,ugm-3
11-01-2004,05:00,1,R,ugm-3,4,R,ugm-3,6,R,ugm-3
11-01-2004,06:00,0,R,ugm-3,2,R,ugm-3,2,R,ugm-3
11-01-2004,07:00,9,R,ugm-3,8,R,ugm-3,21,R,ugm-3
11-01-2004,08:00,5,R,ugm-3,11,R,ugm-3,19,R,ugm-3
11-01-2004,09:00,5,R,ugm-3,13,R,ugm-3,21,R,ugm-3
11-01-2004,10:00,8,R,ugm-3,15,R,ugm-3,27,R,ugm-3
11-01-2004,11:00,16,R,ugm-3,25,R,ugm-3,50,R,ugm-3
11-01-2004,12:00,11,R,ugm-3,21,R,ugm-3,38,R,ugm-3
11-01-2004,13:00,16,R,ugm-3,23,R,ugm-3,48,R,ugm-3
11-01-2004,14:00,15,R,ugm-3,21,R,ugm-3,44,R,ugm-3
11-01-2004,15:00,21,R,ugm-3,32,R,ugm-3,65,R,ugm-3
11-01-2004,16:00,19,R,ugm-3,27,R,ugm-3,55,R,ugm-3
11-01-2004,17:00,38,R,ugm-3,40,R,ugm-3,97,R,ugm-3
11-01-2004,18:00,20,R,ugm-3,29,R,ugm-3,59,R,ugm-3
11-01-2004,19:00,10,R,ugm-3,23,R,ugm-3,38,R,ugm-3
11-01-2004,20:00,13,R,ugm-3,21,R,ugm-3,40,R,ugm-3
11-01-2004,21:00,10,R,ugm-3,17,R,ugm-3,32,R,ugm-3
11-01-2004,22:00,9,R,ugm-3,15,R,ugm-3,29,R,ugm-3
11-01-2004,23:00,6,R,ugm-3,15,R,ugm-3,25,R,ugm-3
11-01-2004,24:00,6,R,ugm-3,17,R,ugm-3,27,R,ugm-3
12-01-2004,01:00,1,R,ugm-3,8,R,ugm-3,10,R,ugm-3
12-01-2004,02:00,1,R,ugm-3,8,R,ugm-3,10,R,ugm-3
12-01-2004,03:00,0,R,ugm-3,4,R,ugm-3,4,R,ugm-3
12-01-2004,04:00,0,R,ugm-3,4,R,ugm-3,4,R,ugm-3
12-01-2004,05:00,1,R,ugm-3,10,R,ugm-3,11,R,ugm-3
12-01-2004,06:00,3,R,ugm-3,29,R,ugm-3,32,R,ugm-3
12-01-2004,07:00,35,R,ugm-3,34,R,ugm-3,88,R,ugm-3
12-01-2004,08:00,30,R,ugm-3,44,R,ugm-3,90,R,ugm-3
12-01-2004,09:00,99,R,ugm-3,71,R,ugm-3,222,R,ugm-3
12-01-2004,10:00,169,R,ugm-3,88,R,ugm-3,346,R,ugm-3
12-01-2004,11:00,199,R,ugm-3,92,R,ugm-3,395,R,ugm-3
12-01-2004,12:00,214,R,ugm-3,96,R,ugm-3,422,R,ugm-3
12-01-2004,13:00,259,R,ugm-3,105,R,ugm-3,500,R,ugm-3
12-01-2004,14:00,169,R,ugm-3,90,R,ugm-3,348,R,ugm-3
12-01-2004,15:00,90,R,ugm-3,63,R,ugm-3,201,R,ugm-3
12-01-2004,16:00,116,R,ugm-3,76,R,ugm-3,254,R,ugm-3
12-01-2004,17:00,115,R,ugm-3,76,R,ugm-3,252,R,ugm-3
12-01-2004,18:00,188,R,ugm-3,86,R,ugm-3,372,R,ugm-3
12-01-2004,19:00,119,R,ugm-3,78,R,ugm-3,260,R,ugm-3
12-01-2004,20:00,50,R,ugm-3,57,R,ugm-3,134,R,ugm-3
12-01-2004,21:00,30,R,ugm-3,50,R,ugm-3,96,R,ugm-3
12-01-2004,22:00,18,R,ugm-3,42,R,ugm-3,69,R,ugm-3
12-01-2004,23:00,10,R,ugm-3,31,R,ugm-3,46,R,ugm-3
12-01-2004,24:00,9,R,ugm-3,29,R,ugm-3,42,R,ugm-3
13-01-2004,01:00,3,R,ugm-3,29,R,ugm-3,32,R,ugm-3
13-01-2004,02:00,1,R,ugm-3,11,R,ugm-3,13,R,ugm-3
13-01-2004,03:00,1,R,ugm-3,4,R,ugm-3,6,R,ugm-3
13-01-2004,04:00,1,R,ugm-3,2,R,ugm-3,4,R,ugm-3
13-01-2004,05:00,1,R,ugm-3,4,R,ugm-3,6,R,ugm-3
13-01-2004,06:00,1,R,ugm-3,4,R,ugm-3,6,R,ugm-3
13-01-2004,07:00,11,R,ugm-3,11,R,ugm-3,29,R,ugm-3
13-01-2004,08:00,19,R,ugm-3,23,R,ugm-3,52,R,ugm-3
13-01-2004,09:00,38,R,ugm-3,42,R,ugm-3,99,R,ugm-3
13-01-2004,10:00,51,R,ugm-3,48,R,ugm-3,126,R,ugm-3
13-01-2004,11:00,31,R,ugm-3,36,R,ugm-3,84,R,ugm-3
13-01-2004,12:00,36,R,ugm-3,34,R,ugm-3,90,R,ugm-3
13-01-2004,13:00,36,R,ugm-3,34,R,ugm-3,90,R,ugm-3
13-01-2004,14:00,45,R,ugm-3,34,R,ugm-3,103,R,ugm-3
13-01-2004,15:00,70,R,ugm-3,50,R,ugm-3,157,R,ugm-3
13-01-2004,16:00,49,R,ugm-3,46,R,ugm-3,120,R,ugm-3
13-01-2004,17:00,75,R,ugm-3,59,R,ugm-3,174,R,ugm-3
13-01-2004,18:00,95,R,ugm-3,67,R,ugm-3,212,R,ugm-3
13-01-2004,19:00,76,R,ugm-3,55,R,ugm-3,172,R,ugm-3
13-01-2004,20:00,30,R,ugm-3,38,R,ugm-3,84,R,ugm-3
13-01-2004,21:00,20,R,ugm-3,34,R,ugm-3,65,R,ugm-3
13-01-2004,22:00,15,R,ugm-3,27,R,ugm-3,50,R,ugm-3
13-01-2004,23:00,11,R,ugm-3,19,R,ugm-3,36,R,ugm-3
13-01-2004,24:00,14,R,ugm-3,29,R,ugm-3,50,R,ugm-3
14-01-2004,01:00,4,R,ugm-3,15,R,ugm-3,21,R,ugm-3
14-01-2004,02:00,1,R,ugm-3,8,R,ugm-3,10,R,ugm-3
14-01-2004,03:00,3,R,ugm-3,6,R,ugm-3,10,R,ugm-3
14-01-2004,04:00,1,R,ugm-3,6,R,ugm-3,8,R,ugm-3
14-01-2004,05:00,1,R,ugm-3,6,R,ugm-3,8,R,ugm-3
14-01-2004,06:00,1,R,ugm-3,11,R,ugm-3,13,R,ugm-3
14-01-2004,07:00,20,R,ugm-3,34,R,ugm-3,65,R,ugm-3
14-01-2004,08:00,105,R,ugm-3,65,R,ugm-3,225,R,ugm-3
14-01-2004,09:00,84,R,ugm-3,61,R,ugm-3,189,R,ugm-3
14-01-2004,10:00,90,R,ugm-3,73,R,ugm-3,210,R,ugm-3
14-01-2004,11:00,64,R,ugm-3,71,R,ugm-3,168,R,ugm-3
14-01-2004,12:00,29,R,ugm-3,53,R,ugm-3,97,R,ugm-3
14-01-2004,13:00,30,R,ugm-3,55,R,ugm-3,101,R,ugm-3
14-01-2004,14:00,36,R,ugm-3,57,R,ugm-3,113,R,ugm-3
14-01-2004,15:00,30,R,ugm-3,55,R,ugm-3,101,R,ugm-3
14-01-2004,16:00,26,R,ugm-3,50,R,ugm-3,90,R,ugm-3
14-01-2004,17:00,135,R,ugm-3,86,R,ugm-3,292,R,ugm-3
14-01-2004,18:00,126,R,ugm-3,78,R,ugm-3,271,R,ugm-3
14-01-2004,19:00,83,R,ugm-3,67,R,ugm-3,193,R,ugm-3
14-01-2004,20:00,44,R,ugm-3,44,R,ugm-3,111,R,ugm-3
14-01-2004,21:00,31,R,ugm-3,44,R,ugm-3,92,R,ugm-3
14-01-2004,22:00,36,R,ugm-3,53,R,ugm-3,109,R,ugm-3
14-01-2004,23:00,33,R,ugm-3,52,R,ugm-3,101,R,ugm-3
14-01-2004,24:00,23,R,ugm-3,34,R,ugm-3,69,R,ugm-3
15-01-2004,01:00,6,R,ugm-3,17,R,ugm-3,27,R,ugm-3
15-01-2004,02:00,5,R,ugm-3,17,R,ugm-3,25,R,ugm-3
15-01-2004,03:00,6,R,ugm-3,17,R,ugm-3,27,R,ugm-3
15-01-2004,04:00,1,R,ugm-3,13,R,ugm-3,15,R,ugm-3
15-01-2004,05:00,1,R,ugm-3,15,R,ugm-3,17,R,ugm-3
15-01-2004,06:00,5,R,ugm-3,19,R,ugm-3,27,R,ugm-3
15-01-2004,07:00,23,R,ugm-3,38,R,ugm-3,73,R,ugm-3
15-01-2004,08:00,91,R,ugm-3,71,R,ugm-3,210,R,ugm-3
15-01-2004,09:00,161,R,ugm-3,82,R,ugm-3,329,R,ugm-3
15-01-2004,10:00,124,R,ugm-3,71,R,ugm-3,260,R,ugm-3
15-01-2004,11:00,103,R,ugm-3,65,R,ugm-3,222,R,ugm-3
15-01-2004,12:00,118,R,ugm-3,74,R,ugm-3,254,R,ugm-3
15-01-2004,13:00,111,R,ugm-3,73,R,ugm-3,243,R,ugm-3
15-01-2004,14:00,84,R,ugm-3,69,R,ugm-3,197,R,ugm-3
15-01-2004,15:00,109,R,ugm-3,73,R,ugm-3,239,R,ugm-3
15-01-2004,16:00,96,R,ugm-3,73,R,ugm-3,220,R,ugm-3
15-01-2004,17:00,90,R,ugm-3,71,R,ugm-3,208,R,ugm-3
15-01-2004,18:00,50,R,ugm-3,57,R,ugm-3,134,R,ugm-3
15-01-2004,19:00,36,R,ugm-3,44,R,ugm-3,99,R,ugm-3
15-01-2004,20:00,16,R,ugm-3,23,R,ugm-3,48,R,ugm-3
15-01-2004,21:00,11,R,ugm-3,17,R,ugm-3,34,R,ugm-3
15-01-2004,22:00,11,R,ugm-3,17,R,ugm-3,34,R,ugm-3
15-01-2004,23:00,11,R,ugm-3,23,R,ugm-3,40,R,ugm-3
15-01-2004,24:00,10,R,ugm-3,15,R,ugm-3,31,R,ugm-3
16-01-2004,01:00,3,R,ugm-3,6,R,ugm-3,10,R,ugm-3
16-01-2004,02:00,4,R,ugm-3,8,R,ugm-3,13,R,ugm-3
16-01-2004,03:00,3,R,ugm-3,6,R,ugm-3,10,R,ugm-3
16-01-2004,04:00,0,R,ugm-3,2,R,ugm-3,2,R,ugm-3
16-01-2004,05:00,1,R,ugm-3,2,R,ugm-3,4,R,ugm-3
16-01-2004,06:00,1,R,ugm-3,2,R,ugm-3,4,R,ugm-3
16-01-2004,07:00,15,R,ugm-3,15,R,ugm-3,38,R,ugm-3
16-01-2004,08:00,20,R,ugm-3,27,R,ugm-3,57,R,ugm-3
16-01-2004,09:00,55,R,ugm-3,40,R,ugm-3,124,R,ugm-3
16-01-2004,10:00,49,R,ugm-3,40,R,ugm-3,115,R,ugm-3
16-01-2004,11:00,,,,,,,,,
16-01-2004,12:00,55,R,ugm-3,40,R,ugm-3,124,R,ugm-3
16-01-2004,13:00,46,R,ugm-3,40,R,ugm-3,111,R,ugm-3
16-01-2004,14:00,44,R,ugm-3,36,R,ugm-3,103,R,ugm-3
16-01-2004,15:00,54,R,ugm-3,46,R,ugm-3,128,R,ugm-3
16-01-2004,16:00,49,R,ugm-3,48,R,ugm-3,122,R,ugm-3
16-01-2004,17:00,86,R,ugm-3,57,R,ugm-3,189,R,ugm-3
16-01-2004,18:00,84,R,ugm-3,63,R,ugm-3,191,R,ugm-3
16-01-2004,19:00,93,R,ugm-3,63,R,ugm-3,204,R,ugm-3
16-01-2004,20:00,60,R,ugm-3,52,R,ugm-3,143,R,ugm-3
16-01-2004,21:00,36,R,ugm-3,42,R,ugm-3,97,R,ugm-3
16-01-2004,22:00,29,R,ugm-3,42,R,ugm-3,86,R,ugm-3
16-01-2004,23:00,34,R,ugm-3,40,R,ugm-3,92,R,ugm-3
16-01-2004,24:00,35,R,ugm-3,42,R,ugm-3,96,R,ugm-3
17-01-2004,01:00,10,R,ugm-3,31,R,ugm-3,46,R,ugm-3
17-01-2004,02:00,20,R,ugm-3,34,R,ugm-3,65,R,ugm-3
17-01-2004,03:00,14,R,ugm-3,34,R,ugm-3,55,R,ugm-3
17-01-2004,04:00,9,R,ugm-3,31,R,ugm-3,44,R,ugm-3
17-01-2004,05:00,6,R,ugm-3,29,R,ugm-3,38,R,ugm-3
17-01-2004,06:00,11,R,ugm-3,32,R,ugm-3,50,R,ugm-3
17-01-2004,07:00,16,R,ugm-3,34,R,ugm-3,59,R,ugm-3
17-01-2004,08:00,56,R,ugm-3,53,R,ugm-3,139,R,ugm-3
17-01-2004,09:00,96,R,ugm-3,61,R,ugm-3,208,R,ugm-3
17-01-2004,10:00,95,R,ugm-3,59,R,ugm-3,204,R,ugm-3
17-01-2004,11:00,140,R,ugm-3,57,R,ugm-3,271,R,ugm-3
17-01-2004,12:00,84,R,ugm-3,55,R,ugm-3,183,R,ugm-3
17-01-2004,13:00,58,R,ugm-3,44,R,ugm-3,132,R,ugm-3
17-01-2004,14:00,54,R,ugm-3,42,R,ugm-3,124,R,ugm-3
17-01-2004,15:00,45,R,ugm-3,40,R,ugm-3,109,R,ugm-3
17-01-2004,16:00,43,R,ugm-3,38,R,ugm-3,103,R,ugm-3
17-01-2004,17:00,34,R,ugm-3,38,R,ugm-3,90,R,ugm-3
17-01-2004,18:00,29,R,ugm-3,32,R,ugm-3,76,R,ugm-3
17-01-2004,19:00,18,R,ugm-3,23,R,ugm-3,50,R,ugm-3
17-01-2004,20:00,15,R,ugm-3,23,R,ugm-3,46,R,ugm-3
17-01-2004,21:00,10,R,ugm-3,23,R,ugm-3,38,R,ugm-3
17-01-2004,22:00,6,R,ugm-3,17,R,ugm-3,27,R,ugm-3
17-01-2004,23:00,9,R,ugm-3,15,R,ugm-3,29,R,ugm-3
17-01-2004,24:00,11,R,ugm-3,21,R,ugm-3,38,R,ugm-3
18-01-2004,01:00,6,R,ugm-3,15,R,ugm-3,25,R,ugm-3
18-01-2004,02:00,13,R,ugm-3,29,R,ugm-3,48,R,ugm-3
18-01-2004,03:00,11,R,ugm-3,23,R,ugm-3,40,R,ugm-3
18-01-2004,04:00,4,R,ugm-3,13,R,ugm-3,19,R,ugm-3
18-01-2004,05:00,1,R,ugm-3,8,R,ugm-3,10,R,ugm-3
18-01-2004,06:00,3,R,ugm-3,11,R,ugm-3,15,R,ugm-3
18-01-2004,07:00,10,R,ugm-3,23,R,ugm-3,38,R,ugm-3
18-01-2004,08:00,29,R,ugm-3,38,R,ugm-3,82,R,ugm-3
18-01-2004,09:00,18,R,ugm-3,38,R,ugm-3,65,R,ugm-3
18-01-2004,10:00,31,R,ugm-3,40,R,ugm-3,88,R,ugm-3
18-01-2004,11:00,49,R,ugm-3,40,R,ugm-3,115,R,ugm-3
18-01-2004,12:00,54,R,ugm-3,40,R,ugm-3,122,R,ugm-3
18-01-2004,13:00,54,R,ugm-3,44,R,ugm-3,126,R,ugm-3
18-01-2004,14:00,65,R,ugm-3,50,R,ugm-3,149,R,ugm-3
18-01-2004,15:00,44,R,ugm-3,48,R,ugm-3,115,R,ugm-3
18-01-2004,16:00,71,R,ugm-3,55,R,ugm-3,164,R,ugm-3
18-01-2004,17:00,65,R,ugm-3,57,R,ugm-3,157,R,ugm-3
18-01-2004,18:00,49,R,ugm-3,48,R,ugm-3,122,R,ugm-3
18-01-2004,19:00,41,R,ugm-3,44,R,ugm-3,107,R,ugm-3
18-01-2004,20:00,28,R,ugm-3,40,R,ugm-3,82,R,ugm-3
18-01-2004,21:00,31,R,ugm-3,36,R,ugm-3,84,R,ugm-3
18-01-2004,22:00,25,R,ugm-3,34,R,ugm-3,73,R,ugm-3
18-01-2004,23:00,16,R,ugm-3,31,R,ugm-3,55,R,ugm-3
18-01-2004,24:00,9,R,ugm-3,25,R,ugm-3,38,R,ugm-3
19-01-2004,01:00,5,R,ugm-3,17,R,ugm-3,25,R,ugm-3
19-01-2004,02:00,4,R,ugm-3,13,R,ugm-3,19,R,ugm-3
19-01-2004,03:00,3,R,ugm-3,10,R,ugm-3,13,R,ugm-3
19-01-2004,04:00,1,R,ugm-3,6,R,ugm-3,8,R,ugm-3
19-01-2004,05:00,1,R,ugm-3,6,R,ugm-3,8,R,ugm-3
19-01-2004,06:00,3,R,ugm-3,10,R,ugm-3,13,R,ugm-3
19-01-2004,07:00,10,R,ugm-3,21,R,ugm-3,36,R,ugm-3
19-01-2004,08:00,36,R,ugm-3,42,R,ugm-3,97,R,ugm-3
19-01-2004,09:00,84,R,ugm-3,61,R,ugm-3,189,R,ugm-3
19-01-2004,10:00,81,R,ugm-3,67,R,ugm-3,191,R,ugm-3
19-01-2004,11:00,81,R,ugm-3,67,R,ugm-3,191,R,ugm-3
19-01-2004,12:00,64,R,ugm-3,57,R,ugm-3,155,R,ugm-3
19-01-2004,13:00,65,R,ugm-3,57,R,ugm-3,157,R,ugm-3
19-01-2004,14:00,69,R,ugm-3,57,R,ugm-3,162,R,ugm-3
19-01-2004,15:00,50,R,ugm-3,42,R,ugm-3,118,R,ugm-3
19-01-2004,16:00,41,R,ugm-3,44,R,ugm-3,107,R,ugm-3
19-01-2004,17:00,45,R,ugm-3,38,R,ugm-3,107,R,ugm-3
19-01-2004,18:00,43,R,ugm-3,34,R,ugm-3,99,R,ugm-3
19-01-2004,19:00,35,R,ugm-3,31,R,ugm-3,84,R,ugm-3
19-01-2004,20:00,16,R,ugm-3,25,R,ugm-3,50,R,ugm-3
19-01-2004,21:00,15,R,ugm-3,25,R,ugm-3,48,R,ugm-3
19-01-2004,22:00,11,R,ugm-3,19,R,ugm-3,36,R,ugm-3
19-01-2004,23:00,10,R,ugm-3,19,R,ugm-3,34,R,ugm-3
19-01-2004,24:00,14,R,ugm-3,15,R,ugm-3,36,R,ugm-3
20-01-2004,01:00,3,R,ugm-3,6,R,ugm-3,10,R,ugm-3
20-01-2004,02:00,1,R,ugm-3,6,R,ugm-3,8,R,ugm-3
20-01-2004,03:00,3,R,ugm-3,6,R,ugm-3,10,R,ugm-3
20-01-2004,04:00,0,R,ugm-3,2,R,ugm-3,2,R,ugm-3
20-01-2004,05:00,1,R,ugm-3,6,R,ugm-3,8,R,ugm-3
20-01-2004,06:00,5,R,ugm-3,15,R,ugm-3,23,R,ugm-3
20-01-2004,07:00,23,R,ugm-3,27,R,ugm-3,61,R,ugm-3
20-01-2004,08:00,50,R,ugm-3,46,R,ugm-3,122,R,ugm-3
20-01-2004,09:00,108,R,ugm-3,63,R,ugm-3,227,R,ugm-3
20-01-2004,10:00,136,R,ugm-3,73,R,ugm-3,281,R,ugm-3
20-01-2004,11:00,150,R,ugm-3,76,R,ugm-3,306,R,ugm-3
20-01-2004,12:00,191,R,ugm-3,80,R,ugm-3,372,R,ugm-3
20-01-2004,13:00,213,R,ugm-3,82,R,ugm-3,407,R,ugm-3
20-01-2004,14:00,154,R,ugm-3,76,R,ugm-3,311,R,ugm-3
20-01-2004,15:00,71,R,ugm-3,57,R,ugm-3,166,R,ugm-3
20-01-2004,16:00,74,R,ugm-3,55,R,ugm-3,168,R,ugm-3
20-01-2004,17:00,194,R,ugm-3,71,R,ugm-3,367,R,ugm-3